CFG8PA EDDL-GCTS

Flight info

Callsign CFG8PA
Flight time N/A
Altitude FL340
Route NETEX RASCA FAMEN BSN ESTOC PON DITAL GODIX DIDAK KURIS TERPO ERIGA FUJTI ATLEN ABUPI PESUL BUSEN BEXAL UN866 KONBA
Aircraft A21N/M-SDE3FGHIRWY/LB1

Departure

Time N/A
Airport Düsseldorf Airport (EDDL)

Arrival

Time 2026-05-06 08:44
Airport Tenerife Sur Airport (GCTS)
Time Latitude Longitude Altitude Speed Heading
2026-05-06 06:54 38.21679 -10.19009 36882 ft 434 kts 208°
2026-05-06 06:54 38.18918 -10.20603 37029 ft 434 kts 208°
2026-05-06 06:55 38.16132 -10.22212 37038 ft 435 kts 208°
2026-05-06 06:55 38.10653 -10.25369 37043 ft 434 kts 208°
2026-05-06 06:56 38.05061 -10.28586 37047 ft 434 kts 208°
2026-05-06 06:56 37.99439 -10.31815 37047 ft 434 kts 208°
2026-05-06 06:57 37.93876 -10.35005 37047 ft 434 kts 208°
2026-05-06 06:57 37.88278 -10.38210 37044 ft 434 kts 208°
2026-05-06 06:58 37.82571 -10.41471 37047 ft 434 kts 208°
2026-05-06 06:58 37.76893 -10.44711 37041 ft 434 kts 208°
2026-05-06 06:59 37.71226 -10.47938 37036 ft 434 kts 208°
2026-05-06 06:59 37.65477 -10.51206 37036 ft 434 kts 208°
2026-05-06 07:00 37.59868 -10.54390 37041 ft 434 kts 208°
2026-05-06 07:00 37.54294 -10.57548 37040 ft 433 kts 208°
2026-05-06 07:01 37.48747 -10.60688 37041 ft 434 kts 208°
2026-05-06 07:01 37.43245 -10.63795 37043 ft 434 kts 208°
2026-05-06 07:02 37.37552 -10.67005 37046 ft 433 kts 207°
2026-05-06 07:02 37.31963 -10.70151 37049 ft 434 kts 207°
2026-05-06 07:03 37.26296 -10.73336 37048 ft 433 kts 207°
2026-05-06 07:03 37.20536 -10.76568 37046 ft 433 kts 207°
2026-05-06 07:04 37.14806 -10.79777 37053 ft 433 kts 207°
2026-05-06 07:04 37.09070 -10.82987 37058 ft 433 kts 207°
2026-05-06 07:05 37.03366 -10.86172 37048 ft 433 kts 207°
2026-05-06 07:05 36.97748 -10.89303 37037 ft 432 kts 207°
2026-05-06 07:06 36.92244 -10.92366 37038 ft 433 kts 207°
2026-05-06 07:06 36.86622 -10.95490 37037 ft 433 kts 207°
2026-05-06 07:07 36.80913 -10.98657 37034 ft 433 kts 207°
2026-05-06 07:07 36.75280 -11.01777 37037 ft 433 kts 207°
2026-05-06 07:08 36.69637 -11.04897 37041 ft 432 kts 207°
2026-05-06 07:08 36.64053 -11.07980 37044 ft 432 kts 207°
2026-05-06 07:09 36.58517 -11.11031 37044 ft 432 kts 207°
2026-05-06 07:09 36.53009 -11.14063 37042 ft 432 kts 207°
2026-05-06 07:10 36.47504 -11.17089 37047 ft 432 kts 207°
2026-05-06 07:10 36.41937 -11.20144 37050 ft 433 kts 207°
2026-05-06 07:11 36.36420 -11.23166 37048 ft 432 kts 207°
2026-05-06 07:11 36.30875 -11.26200 37050 ft 432 kts 207°
2026-05-06 07:12 36.25359 -11.29214 37046 ft 431 kts 207°
2026-05-06 07:12 36.19860 -11.32213 37045 ft 431 kts 207°
2026-05-06 07:13 36.14373 -11.35204 37047 ft 432 kts 207°
2026-05-06 07:13 36.08857 -11.38208 37048 ft 432 kts 207°
2026-05-06 07:14 36.03357 -11.41194 37047 ft 432 kts 207°
2026-05-06 07:14 35.97917 -11.44374 37049 ft 429 kts 212°
2026-05-06 07:15 35.92836 -11.48163 37051 ft 427 kts 218°
2026-05-06 07:15 35.87991 -11.52405 37053 ft 427 kts 219°
2026-05-06 07:16 35.83158 -11.56652 37050 ft 427 kts 219°
2026-05-06 07:16 35.78291 -11.60922 37051 ft 426 kts 219°
2026-05-06 07:17 35.73484 -11.65131 37050 ft 427 kts 218°
2026-05-06 07:17 35.68661 -11.69345 37048 ft 426 kts 218°
2026-05-06 07:18 35.63825 -11.73566 37048 ft 426 kts 218°
2026-05-06 07:18 35.59044 -11.77731 37049 ft 427 kts 218°
2026-05-06 07:19 35.54231 -11.81917 37050 ft 428 kts 218°
2026-05-06 07:19 35.49221 -11.86269 37048 ft 428 kts 218°
2026-05-06 07:20 35.44184 -11.90638 37047 ft 428 kts 218°
2026-05-06 07:20 35.39223 -11.94933 37047 ft 428 kts 218°
2026-05-06 07:21 35.34243 -11.99237 37048 ft 428 kts 218°
2026-05-06 07:21 35.29232 -12.03564 37046 ft 428 kts 218°
2026-05-06 07:22 35.24218 -12.07884 37045 ft 428 kts 218°
2026-05-06 07:22 35.19185 -12.12217 37046 ft 428 kts 218°
2026-05-06 07:23 35.14238 -12.16467 37046 ft 428 kts 218°
2026-05-06 07:23 35.09307 -12.20698 37050 ft 429 kts 218°
2026-05-06 07:24 35.04379 -12.24920 37057 ft 429 kts 218°
2026-05-06 07:24 34.99441 -12.29142 37063 ft 429 kts 218°
2026-05-06 07:25 34.94504 -12.33360 37065 ft 429 kts 218°
2026-05-06 07:25 34.89510 -12.37616 37066 ft 428 kts 218°
2026-05-06 07:26 34.84385 -12.41981 37065 ft 429 kts 218°
2026-05-06 07:26 34.79261 -12.46340 37061 ft 429 kts 218°
2026-05-06 07:27 34.74209 -12.50627 37060 ft 429 kts 218°
2026-05-06 07:27 34.69169 -12.54899 37062 ft 429 kts 218°
2026-05-06 07:28 34.64002 -12.59273 37064 ft 430 kts 218°
2026-05-06 07:28 34.56341 -12.65747 37063 ft 430 kts 218°
2026-05-06 07:29 34.51215 -12.70070 37063 ft 429 kts 218°
2026-05-06 07:29 34.46131 -12.74350 37063 ft 431 kts 218°
2026-05-06 07:30 34.41072 -12.78603 37062 ft 430 kts 218°
2026-05-06 07:30 34.36064 -12.82812 37062 ft 430 kts 218°
2026-05-06 07:31 34.31134 -12.86948 37062 ft 431 kts 218°
2026-05-06 07:31 34.26217 -12.91063 37065 ft 429 kts 218°
2026-05-06 07:32 34.21198 -12.95281 37067 ft 429 kts 218°
2026-05-06 07:32 34.16221 -12.99474 37068 ft 430 kts 218°
2026-05-06 07:33 34.11265 -13.03646 37065 ft 430 kts 218°
2026-05-06 07:33 34.06353 -13.07775 37065 ft 429 kts 218°
2026-05-06 07:34 34.01407 -13.11926 37069 ft 430 kts 218°
2026-05-06 07:34 33.96485 -13.16054 37067 ft 430 kts 218°
2026-05-06 07:35 33.91546 -13.20188 37068 ft 429 kts 218°
2026-05-06 07:35 33.86661 -13.24273 37068 ft 430 kts 218°
2026-05-06 07:36 33.81745 -13.28377 37065 ft 431 kts 218°
2026-05-06 07:36 33.76891 -13.32424 37061 ft 430 kts 218°
2026-05-06 07:37 33.72075 -13.36435 37068 ft 430 kts 218°
2026-05-06 07:37 33.67433 -13.40295 37069 ft 431 kts 218°
2026-05-06 07:38 33.62770 -13.44165 37067 ft 432 kts 218°
2026-05-06 07:38 33.58103 -13.48035 37065 ft 432 kts 218°
2026-05-06 07:39 33.53321 -13.51996 37065 ft 432 kts 218°
2026-05-06 07:39 33.48669 -13.55843 37069 ft 432 kts 218°
2026-05-06 07:40 33.44033 -13.59674 37069 ft 433 kts 218°
2026-05-06 07:40 33.39436 -13.63465 37067 ft 434 kts 218°
2026-05-06 07:41 33.34749 -13.67326 37067 ft 433 kts 218°
2026-05-06 07:41 33.30009 -13.71226 37064 ft 433 kts 218°
2026-05-06 07:42 33.25292 -13.75106 37062 ft 433 kts 218°
2026-05-06 07:42 33.20572 -13.78986 37069 ft 434 kts 218°
2026-05-06 07:43 33.15855 -13.82851 37070 ft 434 kts 218°
2026-05-06 07:43 33.11017 -13.86785 37063 ft 434 kts 217°
2026-05-06 07:44 33.06188 -13.90692 37063 ft 435 kts 217°
2026-05-06 07:44 33.01375 -13.94585 37063 ft 435 kts 217°
2026-05-06 07:45 32.96513 -13.98517 37061 ft 436 kts 217°
2026-05-06 07:45 32.91648 -14.02450 37067 ft 436 kts 217°
2026-05-06 07:46 32.86805 -14.06358 37068 ft 436 kts 217°
2026-05-06 07:46 32.81933 -14.10284 37069 ft 435 kts 217°
2026-05-06 07:47 32.77095 -14.14178 37070 ft 435 kts 218°
2026-05-06 07:47 32.72326 -14.18011 37067 ft 435 kts 218°
2026-05-06 07:48 32.67641 -14.21776 37066 ft 435 kts 217°
2026-05-06 07:48 32.62798 -14.25658 37066 ft 434 kts 218°
2026-05-06 07:49 32.57875 -14.29601 37064 ft 435 kts 218°
2026-05-06 07:49 32.52932 -14.33554 37067 ft 436 kts 217°
2026-05-06 07:50 32.48002 -14.37493 37070 ft 436 kts 218°
2026-05-06 07:50 32.43018 -14.41466 37067 ft 436 kts 218°
2026-05-06 07:51 32.38061 -14.45413 37066 ft 436 kts 218°
2026-05-06 07:51 32.33068 -14.49385 37068 ft 436 kts 218°
2026-05-06 07:52 32.28116 -14.53320 37066 ft 435 kts 218°
2026-05-06 07:52 32.23193 -14.57225 37067 ft 435 kts 218°
2026-05-06 07:53 32.18232 -14.61157 37068 ft 436 kts 218°
2026-05-06 07:53 32.13249 -14.65099 37067 ft 436 kts 217°
2026-05-06 07:54 32.08250 -14.69050 37065 ft 437 kts 217°
2026-05-06 07:54 32.03163 -14.73062 37064 ft 437 kts 217°
2026-05-06 07:55 31.98135 -14.77026 37063 ft 439 kts 217°
2026-05-06 07:55 31.93035 -14.81038 37057 ft 439 kts 217°
2026-05-06 07:56 31.87901 -14.85072 37058 ft 440 kts 217°
2026-05-06 07:56 31.82629 -14.89212 37055 ft 440 kts 217°
2026-05-06 07:57 31.77369 -14.93333 37053 ft 439 kts 217°
2026-05-06 07:57 31.72118 -14.97442 37052 ft 438 kts 217°
2026-05-06 07:58 31.66886 -15.01531 37053 ft 438 kts 217°
2026-05-06 07:58 31.61633 -15.05632 37056 ft 438 kts 217°
2026-05-06 07:59 31.56346 -15.09754 37046 ft 439 kts 217°
2026-05-06 07:59 31.51076 -15.13857 37055 ft 438 kts 217°
2026-05-06 08:00 31.45812 -15.17953 37054 ft 438 kts 217°
2026-05-06 08:00 31.40558 -15.22036 37066 ft 439 kts 217°
2026-05-06 08:01 31.35285 -15.26126 37063 ft 439 kts 217°
2026-05-06 08:01 31.29967 -15.30164 37053 ft 441 kts 214°
2026-05-06 08:02 31.24388 -15.33785 37053 ft 442 kts 212°
2026-05-06 08:02 31.18826 -15.37325 37061 ft 442 kts 212°
2026-05-06 08:03 31.13219 -15.40895 37054 ft 442 kts 212°
2026-05-06 08:03 31.07666 -15.44429 37045 ft 442 kts 212°
2026-05-06 08:04 31.02147 -15.47935 37045 ft 442 kts 212°
2026-05-06 08:04 30.96643 -15.51429 37046 ft 441 kts 212°
2026-05-06 08:05 30.91203 -15.54879 37046 ft 442 kts 212°
2026-05-06 08:05 30.85639 -15.58400 37049 ft 442 kts 212°
2026-05-06 08:06 30.80019 -15.61954 37046 ft 441 kts 212°
2026-05-06 08:06 30.74474 -15.65455 37047 ft 442 kts 212°
2026-05-06 08:07 30.68859 -15.68996 37048 ft 441 kts 212°
2026-05-06 08:07 30.63248 -15.72532 37051 ft 443 kts 212°
2026-05-06 08:08 30.57760 -15.75981 37050 ft 442 kts 212°
2026-05-06 08:08 30.52321 -15.79396 37048 ft 442 kts 212°
2026-05-06 08:09 30.46835 -15.82840 37047 ft 443 kts 212°
2026-05-06 08:09 30.41415 -15.86234 37041 ft 441 kts 212°
2026-05-06 08:10 30.35951 -15.89653 37037 ft 442 kts 212°
2026-05-06 08:10 30.30515 -15.93051 37039 ft 441 kts 212°
2026-05-06 08:11 30.25084 -15.96441 37036 ft 442 kts 212°
2026-05-06 08:11 30.19688 -15.99803 37037 ft 440 kts 212°
2026-05-06 08:12 30.14268 -16.03178 37037 ft 440 kts 212°
2026-05-06 08:12 30.08842 -16.06553 37038 ft 441 kts 212°
2026-05-06 08:13 30.03369 -16.09952 37038 ft 440 kts 212°
2026-05-06 08:13 29.97907 -16.13339 37020 ft 440 kts 212°
2026-05-06 08:14 29.92433 -16.16730 37028 ft 440 kts 212°
2026-05-06 08:14 29.86945 -16.20127 37026 ft 442 kts 212°
2026-05-06 08:15 29.81388 -16.23564 37030 ft 441 kts 212°
2026-05-06 08:15 29.75876 -16.26968 37003 ft 440 kts 212°
2026-05-06 08:16 29.70364 -16.30371 37037 ft 440 kts 212°
2026-05-06 08:16 29.64818 -16.33787 37014 ft 440 kts 212°
2026-05-06 08:17 29.59439 -16.37414 37024 ft 437 kts 217°
2026-05-06 08:17 29.54360 -16.41748 37025 ft 435 kts 223°
2026-05-06 08:18 29.49539 -16.46300 37011 ft 434 kts 223°
2026-05-06 08:18 29.44808 -16.50764 37016 ft 433 kts 223°
2026-05-06 08:19 29.40135 -16.55167 37023 ft 435 kts 223°
2026-05-06 08:19 29.35442 -16.59582 37011 ft 436 kts 223°
2026-05-06 08:20 29.30729 -16.64008 37014 ft 435 kts 223°
2026-05-06 08:20 29.25981 -16.68462 37014 ft 435 kts 222°
2026-05-06 08:21 29.21230 -16.72915 37023 ft 437 kts 222°
2026-05-06 08:21 29.16455 -16.77382 37010 ft 436 kts 222°
2026-05-06 08:22 29.11731 -16.81799 36975 ft 435 kts 222°
2026-05-06 08:22 29.09320 -16.84048 36501 ft 434 kts 222°
2026-05-06 08:22 29.06960 -16.86250 35660 ft 435 kts 222°
2026-05-06 08:23 29.04590 -16.88461 34752 ft 440 kts 222°
2026-05-06 08:23 29.02178 -16.90710 33807 ft 444 kts 222°
2026-05-06 08:23 28.99787 -16.92938 32802 ft 445 kts 222°
2026-05-06 08:23 28.97360 -16.95196 31725 ft 447 kts 222°
2026-05-06 08:24 28.94940 -16.97448 30580 ft 450 kts 222°
2026-05-06 08:24 28.92451 -16.99765 29549 ft 452 kts 222°
2026-05-06 08:24 28.89982 -17.02059 28657 ft 451 kts 221°
2026-05-06 08:24 28.87518 -17.04346 27786 ft 451 kts 221°
2026-05-06 08:25 28.85072 -17.06613 26900 ft 452 kts 221°
2026-05-06 08:25 28.82625 -17.08883 25980 ft 453 kts 221°
2026-05-06 08:25 28.80161 -17.11168 25026 ft 455 kts 221°
2026-05-06 08:25 28.77684 -17.13462 24054 ft 457 kts 221°
2026-05-06 08:26 28.75194 -17.15765 23054 ft 458 kts 221°
2026-05-06 08:26 28.72699 -17.18074 22246 ft 455 kts 221°
2026-05-06 08:26 28.70238 -17.20349 21621 ft 448 kts 221°
2026-05-06 08:26 28.67809 -17.22594 20972 ft 442 kts 221°
2026-05-06 08:27 28.65405 -17.24814 20324 ft 437 kts 221°
2026-05-06 08:27 28.63049 -17.26990 19680 ft 432 kts 221°
2026-05-06 08:27 28.60703 -17.29156 19035 ft 428 kts 221°
2026-05-06 08:27 28.58363 -17.31316 18390 ft 423 kts 221°
2026-05-06 08:28 28.56059 -17.33444 17753 ft 419 kts 221°
2026-05-06 08:28 28.53778 -17.35545 17282 ft 410 kts 221°
2026-05-06 08:28 28.51565 -17.37581 16897 ft 399 kts 221°
2026-05-06 08:28 28.49397 -17.39573 16609 ft 387 kts 221°
2026-05-06 08:29 28.47061 -17.41199 16230 ft 382 kts 203°
2026-05-06 08:29 28.44356 -17.41605 15859 ft 381 kts 177°
2026-05-06 08:29 28.41783 -17.40679 15620 ft 374 kts 152°
2026-05-06 08:29 28.39773 -17.38756 15389 ft 366 kts 129°
2026-05-06 08:30 28.38423 -17.36301 15196 ft 355 kts 119°
2026-05-06 08:30 28.37232 -17.33812 14998 ft 345 kts 119°
2026-05-06 08:30 28.36071 -17.31429 14837 ft 333 kts 120°
2026-05-06 08:30 28.34929 -17.29161 14694 ft 322 kts 121°
2026-05-06 08:31 28.33770 -17.26909 14357 ft 320 kts 121°
2026-05-06 08:31 28.32608 -17.24669 13965 ft 319 kts 121°
2026-05-06 08:31 28.31449 -17.22441 13584 ft 317 kts 121°
2026-05-06 08:31 28.30314 -17.20258 13214 ft 316 kts 121°
2026-05-06 08:32 28.29165 -17.18052 12837 ft 314 kts 121°
2026-05-06 08:32 28.27999 -17.15813 12454 ft 312 kts 121°
2026-05-06 08:32 28.26843 -17.13593 12076 ft 311 kts 121°
2026-05-06 08:32 28.25634 -17.11459 11702 ft 309 kts 125°
2026-05-06 08:33 28.24373 -17.09386 11331 ft 307 kts 125°
2026-05-06 08:33 28.23114 -17.07340 10956 ft 305 kts 125°
2026-05-06 08:33 28.21874 -17.05325 10589 ft 303 kts 125°
2026-05-06 08:33 28.20647 -17.03327 10223 ft 302 kts 125°
2026-05-06 08:34 28.19434 -17.01348 10011 ft 293 kts 125°
2026-05-06 08:34 28.17084 -16.97649 9789 ft 269 kts 136°
2026-05-06 08:34 28.15543 -16.96436 9567 ft 265 kts 158°
2026-05-06 08:35 28.13760 -16.95630 9241 ft 263 kts 161°
2026-05-06 08:35 28.12033 -16.94914 8928 ft 262 kts 161°
2026-05-06 08:35 28.10289 -16.94137 8604 ft 260 kts 159°
2026-05-06 08:35 28.08602 -16.93361 8293 ft 258 kts 159°
2026-05-06 08:36 28.06909 -16.92582 7967 ft 257 kts 159°
2026-05-06 08:36 28.05227 -16.91813 7642 ft 255 kts 159°
2026-05-06 08:36 28.03557 -16.91053 7326 ft 253 kts 159°
2026-05-06 08:36 28.01879 -16.90292 6990 ft 252 kts 159°
2026-05-06 08:37 28.00205 -16.89535 6608 ft 251 kts 158°
2026-05-06 08:37 27.98535 -16.88781 6226 ft 252 kts 158°
2026-05-06 08:37 27.96882 -16.88027 5936 ft 249 kts 155°
2026-05-06 08:37 27.95536 -16.86842 5581 ft 246 kts 123°
2026-05-06 08:38 27.94921 -16.84998 5240 ft 241 kts 91°
2026-05-06 08:38 27.95211 -16.83168 4937 ft 235 kts 67°
2026-05-06 08:38 27.95876 -16.81489 4582 ft 232 kts 63°
2026-05-06 08:38 27.96569 -16.79805 4162 ft 232 kts 64°
2026-05-06 08:39 27.97211 -16.78114 3759 ft 230 kts 66°
2026-05-06 08:39 27.97806 -16.76443 3406 ft 228 kts 67°
2026-05-06 08:39 27.98381 -16.74777 3100 ft 224 kts 67°
2026-05-06 08:39 27.98934 -16.73164 2808 ft 218 kts 67°
2026-05-06 08:40 27.99473 -16.71595 2553 ft 209 kts 67°
2026-05-06 08:40 27.99985 -16.70107 2352 ft 195 kts 66°
2026-05-06 08:40 28.00452 -16.68753 2088 ft 176 kts 66°
2026-05-06 08:40 28.00875 -16.67526 1845 ft 160 kts 65°
2026-05-06 08:41 28.01263 -16.66403 1581 ft 146 kts 66°
2026-05-06 08:41 28.01610 -16.65390 1358 ft 135 kts 66°
2026-05-06 08:41 28.01952 -16.64382 1247 ft 135 kts 66°
2026-05-06 08:41 28.02280 -16.63401 1136 ft 134 kts 67°
2026-05-06 08:42 28.02621 -16.62425 979 ft 131 kts 66°
2026-05-06 08:42 28.02964 -16.61493 744 ft 127 kts 65°
2026-05-06 08:42 28.03301 -16.60568 588 ft 127 kts 68°
2026-05-06 08:42 28.03616 -16.59635 432 ft 127 kts 68°
2026-05-06 08:43 28.03933 -16.58720 268 ft 123 kts 68°
2026-05-06 08:43 28.04224 -16.57902 228 ft 93 kts 69°
2026-05-06 08:43 28.04405 -16.57364 228 ft 62 kts 69°
2026-05-06 08:43 28.04582 -16.56959 229 ft 54 kts 47°
2026-05-06 08:44 28.04746 -16.56779 230 ft 17 kts 16°
2026-05-06 08:44 28.04776 -16.56864 230 ft 15 kts 252°
2026-05-06 08:44 28.04739 -16.56972 230 ft 15 kts 248°
2026-05-06 08:44 28.04700 -16.57082 229 ft 15 kts 248°
2026-05-06 08:45 28.04657 -16.57195 229 ft 16 kts 245°
2026-05-06 08:45 28.04612 -16.57310 229 ft 16 kts 247°
2026-05-06 08:45 28.04575 -16.57425 229 ft 13 kts 280°
2026-05-06 08:45 28.04650 -16.57476 229 ft 13 kts 333°
2026-05-06 08:46 28.04663 -16.57565 229 ft 13 kts 249°
2026-05-06 08:46 28.04683 -16.57608 230 ft 7 kts 336°
2026-05-06 08:46 28.04726 -16.57626 230 ft 3 kts 338°
2026-05-06 08:46 28.04730 -16.57628 230 ft 0 kts 338°